Time,TemperatureF,DewpointF,PressureIn,WindDirection,WindDirectionDegrees,WindSpeedMPH,WindSpeedGustMPH,Humidity,HourlyPrecipIn,Conditions,Clouds,dailyrainin,SolarRadiationWatts/m^2,SoftwareType,DateUTC
2013-02-05 00:00:00,58.2,55.0,30.02,SSE,163,0.0,0.0,89,0.00,,FEW035,0.00,0.00,VWS V14.00,2013-02-05 05:00:00,
2013-02-05 00:05:00,58.2,55.0,30.02,SSE,163,0.0,0.0,89,0.00,,FEW035,0.00,0.00,VWS V14.00,2013-02-05 05:05:00,
2013-02-05 00:10:00,58.0,54.8,30.02,SSE,163,0.0,0.0,89,0.00,,FEW035,0.00,0.00,VWS V14.00,2013-02-05 05:10:00,
2013-02-05 00:15:00,58.0,54.8,30.02,SSE,163,0.0,0.0,89,0.00,,FEW035,0.00,0.00,VWS V14.00,2013-02-05 05:15:00,
2013-02-05 00:20:00,58.1,55.2,30.02,SSE,163,0.0,0.0,90,0.00,,FEW035,0.00,0.00,VWS V14.00,2013-02-05 05:20:00,
2013-02-05 00:25:00,58.0,54.8,30.02,SSE,163,0.0,1.0,89,0.00,,FEW035,0.00,0.00,VWS V14.00,2013-02-05 05:25:00,
2013-02-05 00:30:00,57.7,54.8,30.02,SSE,163,0.0,1.0,90,0.00,,FEW035,0.00,0.00,VWS V14.00,2013-02-05 05:30:00,
2013-02-05 00:35:00,57.6,54.7,30.02,SSE,163,0.0,0.0,90,0.00,,FEW035,0.00,0.00,VWS V14.00,2013-02-05 05:35:00,
2013-02-05 00:40:00,57.6,54.7,30.02,SSE,163,0.0,0.0,90,0.00,,FEW035,0.00,0.00,VWS V14.00,2013-02-05 05:40:00,
2013-02-05 00:45:00,57.6,54.7,30.02,SSE,163,0.0,0.0,90,0.00,,FEW035,0.00,0.00,VWS V14.00,2013-02-05 05:45:00,
2013-02-05 00:50:00,57.7,54.8,30.02,SSE,163,0.0,0.0,90,0.00,,FEW035,0.00,0.00,VWS V14.00,2013-02-05 05:50:00,
2013-02-05 00:55:00,57.7,54.8,30.02,SSE,163,0.0,0.0,90,0.00,,FEW035,0.00,0.00,VWS V14.00,2013-02-05 05:55:00,
2013-02-05 01:00:00,57.7,54.8,30.02,SSE,163,0.0,0.0,90,0.00,,FEW035,0.00,0.00,VWS V14.00,2013-02-05 06:00:00,
2013-02-05 01:05:00,57.6,54.7,30.02,SSE,163,0.0,0.0,90,0.00,,FEW035,0.00,0.00,VWS V14.00,2013-02-05 06:05:00,
2013-02-05 01:10:00,57.6,54.7,30.02,SSE,163,0.0,0.0,90,0.00,,FEW035,0.00,0.00,VWS V14.00,2013-02-05 06:10:00,
2013-02-05 01:16:00,57.5,54.6,30.02,SSE,163,0.0,0.0,90,0.00,,FEW035,0.00,0.00,VWS V14.00,2013-02-05 06:16:00,
2013-02-05 01:21:00,57.5,54.6,30.02,SSE,163,0.0,0.0,90,0.00,,FEW035,0.00,0.00,VWS V14.00,2013-02-05 06:21:00,
2013-02-05 01:26:00,57.6,54.7,30.01,SSE,163,0.0,0.0,90,0.00,,FEW035,0.00,0.00,VWS V14.00,2013-02-05 06:26:00,
2013-02-05 01:31:00,57.6,54.7,30.01,SSE,163,0.0,0.0,90,0.00,,FEW035,0.00,0.00,VWS V14.00,2013-02-05 06:31:00,
2013-02-05 01:36:00,57.6,55.0,30.01,SSE,163,0.0,0.0,91,0.00,,FEW035,0.00,0.00,VWS V14.00,2013-02-05 06:36:00,
2013-02-05 01:41:00,57.6,55.0,30.01,SSE,163,0.0,0.0,91,0.00,,FEW035,0.00,0.00,VWS V14.00,2013-02-05 06:41:00,
2013-02-05 01:46:00,57.5,54.9,30.01,SSE,163,0.0,0.0,91,0.00,,FEW035,0.00,0.00,VWS V14.00,2013-02-05 06:46:00,
2013-02-05 01:51:00,57.5,54.9,30.02,SSE,163,0.0,0.0,91,0.00,,FEW035,0.00,0.00,VWS V14.00,2013-02-05 06:51:00,
2013-02-05 01:56:00,57.4,54.8,30.02,SSE,163,0.0,0.0,91,0.00,,FEW035,0.00,0.00,VWS V14.00,2013-02-05 06:56:00,
2013-02-05 02:01:00,57.2,54.6,30.01,SSE,163,0.0,0.0,91,0.00,,FEW035,0.00,0.00,VWS V14.00,2013-02-05 07:01:00,
2013-02-05 02:06:00,57.1,54.5,30.01,SSE,163,0.0,0.0,91,0.00,,FEW035,0.00,0.00,VWS V14.00,2013-02-05 07:06:00,
2013-02-05 02:11:00,57.1,54.5,30.01,SSE,163,0.0,0.0,91,0.00,,FEW035,0.00,0.00,VWS V14.00,2013-02-05 07:11:00,
2013-02-05 02:16:00,57.1,54.5,30.01,SSE,163,0.0,0.0,91,0.00,,FEW035,0.00,0.00,VWS V14.00,2013-02-05 07:16:00,
2013-02-05 02:21:00,57.0,54.4,30.01,SSE,163,0.0,0.0,91,0.00,,FEW035,0.00,0.00,VWS V14.00,2013-02-05 07:21:00,
2013-02-05 02:26:00,57.0,54.4,30.01,SSE,163,0.0,0.0,91,0.00,,FEW035,0.00,0.00,VWS V14.00,2013-02-05 07:26:00,
2013-02-05 02:31:00,56.9,54.3,30.00,SSE,163,0.0,0.0,91,0.00,,FEW035,0.00,0.00,VWS V14.00,2013-02-05 07:31:00,
2013-02-05 02:36:00,56.8,54.2,30.00,SSE,163,0.0,0.0,91,0.00,,FEW035,0.00,0.00,VWS V14.00,2013-02-05 07:36:00,
2013-02-05 02:41:00,56.8,54.2,30.00,SSE,163,0.0,0.0,91,0.00,,FEW035,0.00,0.00,VWS V14.00,2013-02-05 07:41:00,
2013-02-05 02:46:00,56.8,54.2,30.00,SSE,163,0.0,0.0,91,0.00,,FEW035,0.00,0.00,VWS V14.00,2013-02-05 07:46:00,
2013-02-05 02:51:00,57.0,54.4,30.00,SSE,163,0.0,0.0,91,0.00,,FEW035,0.00,0.00,VWS V14.00,2013-02-05 07:51:00,
2013-02-05 02:56:00,56.9,54.3,30.00,SSE,163,0.0,0.0,91,0.00,,FEW035,0.00,0.00,VWS V14.00,2013-02-05 07:56:00,
2013-02-05 03:01:00,56.9,54.3,30.00,SSE,163,0.0,0.0,91,0.00,,FEW035,0.00,0.00,VWS V14.00,2013-02-05 08:01:00,
2013-02-05 03:06:00,56.9,54.3,30.00,SSE,163,0.0,0.0,91,0.00,,FEW035,0.00,0.00,VWS V14.00,2013-02-05 08:06:00,
2013-02-05 03:11:00,56.9,54.3,30.00,SSE,163,0.0,0.0,91,0.00,,FEW035,0.00,0.00,VWS V14.00,2013-02-05 08:11:00,
2013-02-05 03:16:00,56.8,54.2,30.00,SSE,163,0.0,0.0,91,0.00,,FEW035,0.00,0.00,VWS V14.00,2013-02-05 08:16:00,
2013-02-05 03:21:00,56.4,53.8,30.00,SSE,163,0.0,0.0,91,0.00,,FEW035,0.00,0.00,VWS V14.00,2013-02-05 08:21:00,
2013-02-05 03:26:00,56.2,53.6,29.99,SSE,163,0.0,0.0,91,0.00,,FEW035,0.00,0.00,VWS V14.00,2013-02-05 08:26:00,
2013-02-05 03:31:00,56.1,53.5,29.99,SSE,163,0.0,0.0,91,0.00,,FEW035,0.00,0.00,VWS V14.00,2013-02-05 08:31:00,
2013-02-05 03:36:00,56.1,53.8,29.99,SSE,163,0.0,0.0,92,0.00,,FEW035,0.00,0.00,VWS V14.00,2013-02-05 08:36:00,
2013-02-05 03:41:00,56.0,53.7,29.99,SSE,163,0.0,0.0,92,0.00,,FEW035,0.00,0.00,VWS V14.00,2013-02-05 08:41:00,
2013-02-05 03:46:00,56.1,53.8,29.99,SSE,163,0.0,0.0,92,0.00,,FEW035,0.00,0.00,VWS V14.00,2013-02-05 08:46:00,
2013-02-05 03:51:00,56.2,53.9,30.00,SSE,163,0.0,0.0,92,0.00,,FEW035,0.00,0.00,VWS V14.00,2013-02-05 08:51:00,
2013-02-05 03:56:00,56.2,53.9,30.00,SSE,163,0.0,0.0,92,0.00,,FEW035,0.00,0.00,VWS V14.00,2013-02-05 08:56:00,
2013-02-05 04:01:00,56.1,53.8,30.00,SSE,163,0.0,0.0,92,0.00,,FEW035,0.00,0.00,VWS V14.00,2013-02-05 09:01:00,
2013-02-05 04:06:00,56.0,53.4,30.00,SSE,163,0.0,0.0,91,0.00,,FEW035,0.00,0.00,VWS V14.00,2013-02-05 09:06:00,
2013-02-05 04:11:00,55.8,53.2,29.99,SSE,163,0.0,0.0,91,0.00,,FEW035,0.00,0.00,VWS V14.00,2013-02-05 09:11:00,
2013-02-05 04:16:00,55.8,53.5,29.99,SSE,163,0.0,0.0,92,0.00,,FEW035,0.00,0.00,VWS V14.00,2013-02-05 09:16:00,
2013-02-05 04:21:00,56.0,53.7,29.99,SSE,163,0.0,0.0,92,0.00,,FEW035,0.00,0.00,VWS V14.00,2013-02-05 09:21:00,
2013-02-05 04:26:00,56.1,53.8,29.99,SSE,163,0.0,0.0,92,0.00,,FEW035,0.00,0.00,VWS V14.00,2013-02-05 09:26:00,
2013-02-05 04:31:00,56.1,53.8,29.99,SSE,163,0.0,0.0,92,0.00,,FEW035,0.00,0.00,VWS V14.00,2013-02-05 09:31:00,
2013-02-05 04:36:00,56.0,53.7,29.99,SSE,163,0.0,1.0,92,0.00,,FEW035,0.00,0.00,VWS V14.00,2013-02-05 09:36:00,
2013-02-05 04:41:00,55.9,53.6,29.99,SSE,163,0.0,0.0,92,0.00,,FEW035,0.00,0.00,VWS V14.00,2013-02-05 09:41:00,
2013-02-05 04:46:00,55.9,53.6,29.99,SSE,163,0.0,0.0,92,0.00,,FEW035,0.00,0.00,VWS V14.00,2013-02-05 09:46:00,
2013-02-05 04:51:00,55.9,53.6,29.99,SSE,163,0.0,0.0,92,0.00,,FEW035,0.00,0.00,VWS V14.00,2013-02-05 09:51:00,
2013-02-05 04:56:00,55.8,53.5,29.99,SSE,163,0.0,0.0,92,0.00,,FEW035,0.00,0.00,VWS V14.00,2013-02-05 09:56:00,
2013-02-05 05:01:00,55.7,53.4,29.99,SSE,163,0.0,0.0,92,0.00,,FEW035,0.00,0.00,VWS V14.00,2013-02-05 10:01:00,
2013-02-05 05:06:00,55.8,53.5,29.99,SSE,163,0.0,0.0,92,0.00,,FEW035,0.00,0.00,VWS V14.00,2013-02-05 10:06:00,
2013-02-05 05:11:00,55.7,53.4,29.99,SSE,163,0.0,0.0,92,0.00,,FEW035,0.00,0.00,VWS V14.00,2013-02-05 10:11:00,
2013-02-05 05:16:00,55.5,53.2,29.99,SSE,163,0.0,0.0,92,0.00,,FEW035,0.00,0.00,VWS V14.00,2013-02-05 10:16:00,
2013-02-05 05:21:00,55.2,52.9,30.00,SSE,163,0.0,1.0,92,0.00,,FEW035,0.00,0.00,VWS V14.00,2013-02-05 10:21:00,
2013-02-05 05:26:00,54.8,52.5,30.00,SSE,163,0.0,0.0,92,0.00,,FEW035,0.00,0.00,VWS V14.00,2013-02-05 10:26:00,
2013-02-05 05:31:00,54.5,51.9,30.00,SSE,163,0.0,0.0,91,0.00,,FEW035,0.00,0.00,VWS V14.00,2013-02-05 10:31:00,
2013-02-05 05:36:00,54.3,52.0,30.00,SSE,163,0.0,0.0,92,0.00,,FEW035,0.00,0.00,VWS V14.00,2013-02-05 10:36:00,
2013-02-05 05:41:00,54.2,51.9,30.00,SSE,163,0.0,0.0,92,0.00,,FEW035,0.00,0.00,VWS V14.00,2013-02-05 10:41:00,
2013-02-05 05:46:00,54.1,51.8,30.00,SSE,163,0.0,0.0,92,0.00,,FEW035,0.00,0.00,VWS V14.00,2013-02-05 10:46:00,
2013-02-05 05:51:00,54.3,52.0,30.00,SSE,163,0.0,0.0,92,0.00,,FEW035,0.00,0.00,VWS V14.00,2013-02-05 10:51:00,
2013-02-05 05:56:00,54.2,51.9,30.00,SSE,163,0.0,0.0,92,0.00,,FEW035,0.00,0.00,VWS V14.00,2013-02-05 10:56:00,
2013-02-05 06:01:00,54.3,52.0,30.00,SSE,163,0.0,0.0,92,0.00,,FEW035,0.00,0.00,VWS V14.00,2013-02-05 11:01:00,
2013-02-05 06:06:00,54.4,52.1,30.01,SSE,163,0.0,0.0,92,0.00,,FEW035,0.00,0.00,VWS V14.00,2013-02-05 11:06:00,
2013-02-05 06:11:00,54.6,52.3,30.00,SSE,163,0.0,0.0,92,0.00,,FEW035,0.00,0.00,VWS V14.00,2013-02-05 11:11:00,
2013-02-05 06:16:00,54.7,52.4,30.01,SSE,163,0.0,0.0,92,0.00,,FEW035,0.00,0.00,VWS V14.00,2013-02-05 11:16:00,
2013-02-05 06:21:00,54.8,52.5,30.00,SSE,163,0.0,0.0,92,0.00,,FEW035,0.00,0.00,VWS V14.00,2013-02-05 11:21:00,
2013-02-05 06:26:00,54.9,52.6,30.01,SSE,163,0.0,0.0,92,0.00,,FEW035,0.00,0.00,VWS V14.00,2013-02-05 11:26:00,
2013-02-05 06:31:00,54.9,52.6,30.01,SSE,163,0.0,0.0,92,0.00,,FEW035,0.00,0.00,VWS V14.00,2013-02-05 11:31:00,
2013-02-05 06:36:00,54.9,52.6,30.01,SSE,163,0.0,0.0,92,0.00,,FEW035,0.00,0.00,VWS V14.00,2013-02-05 11:36:00,
2013-02-05 06:41:00,54.9,52.6,30.01,SSE,163,0.0,0.0,92,0.00,,FEW035,0.00,0.00,VWS V14.00,2013-02-05 11:41:00,
2013-02-05 06:46:00,55.0,52.7,30.02,SSE,163,0.0,0.0,92,0.00,,FEW035,0.00,0.00,VWS V14.00,2013-02-05 11:46:00,
2013-02-05 06:51:00,54.9,52.6,30.02,SSE,163,0.0,0.0,92,0.00,,FEW035,0.00,0.00,VWS V14.00,2013-02-05 11:51:00,
2013-02-05 06:56:00,54.9,52.6,30.01,SSE,163,0.0,0.0,92,0.00,,FEW035,0.00,0.00,VWS V14.00,2013-02-05 11:56:00,
2013-02-05 07:01:00,54.9,52.6,30.01,SSE,163,0.0,0.0,92,0.00,,FEW035,0.00,0.00,VWS V14.00,2013-02-05 12:01:00,
2013-02-05 07:06:00,54.9,52.6,30.01,SSE,163,0.0,0.0,92,0.00,,FEW035,0.00,0.00,VWS V14.00,2013-02-05 12:06:00,
2013-02-05 07:11:00,55.0,52.7,30.01,SSE,163,0.0,0.0,92,0.00,,FEW035,0.00,0.00,VWS V14.00,2013-02-05 12:11:00,
2013-02-05 07:17:00,55.1,52.8,30.02,SSE,163,0.0,0.0,92,0.00,,FEW035,0.00,5.00,VWS V14.00,2013-02-05 12:17:00,
2013-02-05 07:22:00,55.3,53.0,30.02,SSE,163,0.0,0.0,92,0.00,,FEW035,0.00,12.00,VWS V14.00,2013-02-05 12:22:00,
2013-02-05 07:27:00,55.4,53.1,30.02,SSE,163,0.0,0.0,92,0.00,,FEW035,0.00,33.00,VWS V14.00,2013-02-05 12:27:00,
2013-02-05 07:32:00,55.6,53.3,30.02,SSE,161,0.0,2.0,92,0.00,,FEW035,0.00,33.00,VWS V14.00,2013-02-05 12:32:00,
2013-02-05 07:37:00,56.0,53.7,30.02,SSE,161,0.0,0.0,92,0.00,,FEW035,0.00,32.00,VWS V14.00,2013-02-05 12:37:00,
2013-02-05 07:42:00,56.3,54.0,30.02,SSE,161,0.0,0.0,92,0.00,,FEW035,0.00,33.00,VWS V14.00,2013-02-05 12:42:00,
2013-02-05 07:47:00,56.4,54.1,30.02,SSE,161,0.0,0.0,92,0.00,,FEW035,0.00,39.00,VWS V14.00,2013-02-05 12:47:00,
2013-02-05 07:52:00,56.6,54.3,30.02,SSE,161,0.0,0.0,92,0.00,,FEW035,0.00,44.00,VWS V14.00,2013-02-05 12:52:00,
2013-02-05 07:57:00,56.8,54.5,30.02,SSE,161,0.0,0.0,92,0.00,,FEW035,0.00,46.00,VWS V14.00,2013-02-05 12:57:00,
2013-02-05 08:02:00,57.1,54.8,30.02,SSE,165,0.0,0.0,92,0.00,,FEW035,0.00,47.00,VWS V14.00,2013-02-05 13:02:00,
2013-02-05 08:07:00,57.6,55.3,30.03,SSE,165,0.0,0.0,92,0.00,,FEW035,0.00,56.00,VWS V14.00,2013-02-05 13:07:00,
2013-02-05 08:12:00,58.0,55.7,30.02,SSE,165,0.0,0.0,92,0.00,,FEW035,0.00,67.00,VWS V14.00,2013-02-05 13:12:00,
2013-02-05 08:17:00,58.5,56.2,30.03,SSE,165,1.0,2.0,92,0.00,,FEW035,0.00,79.00,VWS V14.00,2013-02-05 13:17:00,
2013-02-05 08:22:00,59.0,56.7,30.03,SSE,165,1.0,2.0,92,0.00,,FEW035,0.00,90.00,VWS V14.00,2013-02-05 13:22:00,
2013-02-05 08:27:00,59.5,57.2,30.03,SSE,165,0.0,0.0,92,0.00,,FEW035,0.00,95.00,VWS V14.00,2013-02-05 13:27:00,
2013-02-05 08:32:00,60.2,57.6,30.03,East,84,0.0,0.0,91,0.00,,CLR,0.00,100.00,VWS V14.00,2013-02-05 13:32:00,
2013-02-05 08:37:00,60.9,58.0,30.03,East,84,0.0,0.0,90,0.00,,CLR,0.00,104.00,VWS V14.00,2013-02-05 13:37:00,
2013-02-05 08:42:00,61.6,58.3,30.03,East,84,0.0,0.0,89,0.00,,CLR,0.00,109.00,VWS V14.00,2013-02-05 13:42:00,
2013-02-05 08:47:00,62.3,58.4,30.03,East,84,0.0,1.0,87,0.00,,CLR,0.00,111.00,VWS V14.00,2013-02-05 13:47:00,
2013-02-05 08:52:00,62.9,58.0,30.03,East,84,0.0,0.0,84,0.00,,CLR,0.00,113.00,VWS V14.00,2013-02-05 13:52:00,
2013-02-05 08:57:00,63.6,58.3,30.04,East,84,1.0,1.0,83,0.00,,CLR,0.00,114.00,VWS V14.00,2013-02-05 13:57:00,
2013-02-05 09:02:00,64.4,58.1,30.04,East,84,0.0,0.0,80,0.00,,CLR,0.00,116.00,VWS V14.00,2013-02-05 14:02:00,
2013-02-05 09:07:00,65.1,58.4,30.03,East,84,0.0,0.0,79,0.00,,CLR,0.00,118.00,VWS V14.00,2013-02-05 14:07:00,
2013-02-05 09:12:00,65.8,58.8,30.04,East,84,0.0,0.0,78,0.00,,CLR,0.00,120.00,VWS V14.00,2013-02-05 14:12:00,
2013-02-05 09:17:00,66.4,59.0,30.04,East,84,0.0,0.0,77,0.00,,CLR,0.00,120.00,VWS V14.00,2013-02-05 14:17:00,
2013-02-05 09:22:00,67.1,58.9,30.04,East,84,0.0,0.0,75,0.00,,CLR,0.00,121.00,VWS V14.00,2013-02-05 14:22:00,
2013-02-05 09:27:00,67.8,58.5,30.04,East,84,0.0,0.0,72,0.00,,CLR,0.00,121.00,VWS V14.00,2013-02-05 14:27:00,
2013-02-05 09:32:00,68.6,58.8,30.04,East,84,0.0,1.0,71,0.00,,CLR,0.00,123.00,VWS V14.00,2013-02-05 14:32:00,
2013-02-05 09:37:00,69.5,59.3,30.04,East,85,4.0,4.0,70,0.00,,CLR,0.00,125.00,VWS V14.00,2013-02-05 14:37:00,
2013-02-05 09:42:00,70.2,58.7,30.04,ESE,109,4.0,5.0,67,0.00,,CLR,0.00,125.00,VWS V14.00,2013-02-05 14:42:00,
2013-02-05 09:47:00,70.7,58.8,30.04,ESE,112,0.0,3.0,66,0.00,,CLR,0.00,125.00,VWS V14.00,2013-02-05 14:47:00,
2013-02-05 09:52:00,71.0,59.1,30.04,ESE,112,0.0,4.0,66,0.00,,CLR,0.00,123.00,VWS V14.00,2013-02-05 14:52:00,
2013-02-05 09:57:00,71.3,58.9,30.04,ESE,121,2.0,6.0,65,0.00,,CLR,0.00,113.00,VWS V14.00,2013-02-05 14:57:00,
2013-02-05 10:02:00,71.5,58.7,30.04,ESE,122,0.0,3.0,64,0.00,,CLR,0.00,97.00,VWS V14.00,2013-02-05 15:02:00,
2013-02-05 10:07:00,71.8,58.5,30.04,SSE,159,1.0,2.0,63,0.00,,CLR,0.00,97.00,VWS V14.00,2013-02-05 15:07:00,
2013-02-05 10:12:00,72.1,58.8,30.04,SSE,155,1.0,3.0,63,0.00,,CLR,0.00,98.00,VWS V14.00,2013-02-05 15:12:00,
2013-02-05 10:17:00,72.5,58.8,30.04,SSE,152,0.0,9.0,62,0.00,,CLR,0.00,100.00,VWS V14.00,2013-02-05 15:17:00,
2013-02-05 10:22:00,72.5,58.8,30.04,SSE,157,9.0,9.0,62,0.00,,CLR,0.00,100.00,VWS V14.00,2013-02-05 15:22:00,
2013-02-05 10:27:00,72.8,59.5,30.04,SSE,155,1.0,2.0,63,0.00,,CLR,0.00,102.00,VWS V14.00,2013-02-05 15:27:00,
2013-02-05 10:32:00,73.4,59.2,30.04,SSE,160,1.0,3.0,61,0.00,,CLR,0.00,104.00,VWS V14.00,2013-02-05 15:32:00,
2013-02-05 10:37:00,73.7,59.0,30.04,SSE,164,5.0,6.0,60,0.00,,CLR,0.00,104.00,VWS V14.00,2013-02-05 15:37:00,
2013-02-05 10:42:00,73.8,58.6,30.04,SSE,159,0.0,5.0,59,0.00,,CLR,0.00,107.00,VWS V14.00,2013-02-05 15:42:00,
2013-02-05 10:47:00,73.8,58.6,30.04,SSE,155,5.0,9.0,59,0.00,,CLR,0.00,107.00,VWS V14.00,2013-02-05 15:47:00,
2013-02-05 10:52:00,73.9,58.7,30.04,SSE,155,0.0,3.0,59,0.00,,CLR,0.00,109.00,VWS V14.00,2013-02-05 15:52:00,
2013-02-05 10:57:00,74.2,58.5,30.04,South,174,1.0,4.0,58,0.00,,CLR,0.00,111.00,VWS V14.00,2013-02-05 15:57:00,
2013-02-05 11:03:00,74.5,57.8,30.04,South,178,0.0,1.0,56,0.00,,CLR,0.00,111.00,VWS V14.00,2013-02-05 16:03:00,
2013-02-05 11:08:00,75.0,58.3,30.03,South,186,0.0,4.0,56,0.00,,CLR,0.00,113.00,VWS V14.00,2013-02-05 16:08:00,
2013-02-05 11:13:00,75.0,58.3,30.04,South,190,1.0,7.0,56,0.00,,CLR,0.00,114.00,VWS V14.00,2013-02-05 16:13:00,
2013-02-05 11:18:00,75.3,58.0,30.03,SW,223,4.0,9.0,55,0.00,,CLR,0.00,116.00,VWS V14.00,2013-02-05 16:18:00,
2013-02-05 11:23:00,75.4,58.6,30.03,SSW,203,4.0,7.0,56,0.00,,CLR,0.00,116.00,VWS V14.00,2013-02-05 16:23:00,
2013-02-05 11:28:00,75.3,58.5,30.03,SSW,197,5.0,6.0,56,0.00,,CLR,0.00,118.00,VWS V14.00,2013-02-05 16:28:00,
2013-02-05 11:33:00,75.5,58.2,30.03,South,188,2.0,6.0,55,0.00,,FEW035,0.00,120.00,VWS V14.00,2013-02-05 16:33:00,
2013-02-05 11:38:00,75.8,59.0,30.03,South,188,15.0,15.0,56,0.00,,FEW035,0.00,120.00,VWS V14.00,2013-02-05 16:38:00,
2013-02-05 11:43:00,75.8,59.5,30.02,SSE,167,6.0,7.0,57,0.00,,FEW035,0.00,123.00,VWS V14.00,2013-02-05 16:43:00,
2013-02-05 11:48:00,75.7,58.4,30.02,SSW,192,0.0,5.0,55,0.00,,FEW035,0.00,125.00,VWS V14.00,2013-02-05 16:48:00,
2013-02-05 11:53:00,76.1,58.8,30.02,SSW,197,1.0,3.0,55,0.00,,FEW035,0.00,127.00,VWS V14.00,2013-02-05 16:53:00,
2013-02-05 11:58:00,76.3,58.5,30.02,SSW,209,4.0,4.0,54,0.00,,FEW035,0.00,134.00,VWS V14.00,2013-02-05 16:58:00,
2013-02-05 12:03:00,76.4,59.6,30.02,SSW,205,7.0,10.0,56,0.00,,FEW035,0.00,135.00,VWS V14.00,2013-02-05 17:03:00,
2013-02-05 12:08:00,76.5,59.2,30.02,SW,214,3.0,8.0,55,0.00,,FEW035,0.00,141.00,VWS V14.00,2013-02-05 17:08:00,
2013-02-05 12:13:00,76.6,59.8,30.01,SW,227,3.0,3.0,56,0.00,,FEW035,0.00,151.00,VWS V14.00,2013-02-05 17:13:00,
2013-02-05 12:18:00,76.8,59.9,30.02,SSW,213,4.0,6.0,56,0.00,,FEW035,0.00,81.00,VWS V14.00,2013-02-05 17:18:00,
2013-02-05 12:23:00,76.4,60.5,30.01,SSE,157,4.0,6.0,58,0.00,,FEW035,0.00,156.00,VWS V14.00,2013-02-05 17:23:00,
2013-02-05 12:28:00,75.4,60.6,30.01,ESE,120,9.0,9.0,60,0.00,,FEW035,0.00,176.00,VWS V14.00,2013-02-05 17:28:00,
2013-02-05 12:33:00,74.9,60.1,30.00,SE,126,7.0,7.0,60,0.00,,FEW035,0.00,174.00,VWS V14.00,2013-02-05 17:33:00,
2013-02-05 12:38:00,74.5,60.2,30.00,SE,127,2.0,6.0,61,0.00,,FEW035,0.00,77.00,VWS V14.00,2013-02-05 17:38:00,
2013-02-05 12:43:00,74.6,60.3,30.00,SE,127,0.0,4.0,61,0.00,,FEW035,0.00,72.00,VWS V14.00,2013-02-05 17:43:00,
2013-02-05 12:48:00,75.1,60.3,29.99,SSE,159,6.0,7.0,60,0.00,,FEW035,0.00,76.00,VWS V14.00,2013-02-05 17:48:00,
2013-02-05 12:53:00,75.7,59.9,30.00,South,179,9.0,9.0,58,0.00,,FEW035,0.00,118.00,VWS V14.00,2013-02-05 17:53:00,
2013-02-05 12:58:00,75.6,59.8,30.00,South,186,1.0,1.0,58,0.00,,FEW035,0.00,62.00,VWS V14.00,2013-02-05 17:58:00,
2013-02-05 13:03:00,75.3,59.5,29.99,South,184,0.0,0.0,58,0.00,,FEW035,0.00,67.00,VWS V14.00,2013-02-05 18:03:00,
2013-02-05 13:08:00,75.3,60.0,29.99,South,181,0.0,4.0,59,0.00,,FEW035,0.00,67.00,VWS V14.00,2013-02-05 18:08:00,
2013-02-05 13:13:00,75.1,60.3,29.99,SSE,161,0.0,1.0,60,0.00,,FEW035,0.00,93.00,VWS V14.00,2013-02-05 18:13:00,
2013-02-05 13:18:00,74.8,60.0,29.99,SSE,161,0.0,1.0,60,0.00,,FEW035,0.00,67.00,VWS V14.00,2013-02-05 18:18:00,
2013-02-05 13:23:00,74.8,60.5,29.99,SSE,161,0.0,1.0,61,0.00,,FEW035,0.00,160.00,VWS V14.00,2013-02-05 18:23:00,
2013-02-05 13:28:00,75.0,60.7,29.98,SSE,161,1.0,1.0,61,0.00,,FEW035,0.00,139.00,VWS V14.00,2013-02-05 18:28:00,
2013-02-05 13:33:00,75.2,60.8,29.98,SSE,161,0.0,1.0,61,0.00,,SCT035,0.00,179.00,VWS V14.00,2013-02-05 18:33:00,
2013-02-05 13:38:00,75.4,60.6,29.99,SSE,161,0.0,3.0,60,0.00,,SCT035,0.00,81.00,VWS V14.00,2013-02-05 18:38:00,
2013-02-05 13:43:00,75.7,61.3,29.98,SSE,165,2.0,3.0,61,0.00,,SCT035,0.00,91.00,VWS V14.00,2013-02-05 18:43:00,
2013-02-05 13:48:00,75.8,60.9,29.98,SSE,165,0.0,3.0,60,0.00,,SCT035,0.00,83.00,VWS V14.00,2013-02-05 18:48:00,
2013-02-05 13:53:00,75.7,61.3,29.98,SSE,165,4.0,6.0,61,0.00,,SCT035,0.00,84.00,VWS V14.00,2013-02-05 18:53:00,
2013-02-05 13:58:00,75.5,61.6,29.98,SSE,161,3.0,7.0,62,0.00,,SCT035,0.00,107.00,VWS V14.00,2013-02-05 18:58:00,
2013-02-05 14:03:00,75.3,61.8,29.97,SSE,153,1.0,3.0,63,0.00,,SCT035,0.00,93.00,VWS V14.00,2013-02-05 19:03:00,
2013-02-05 14:08:00,75.6,62.1,29.97,ESE,117,3.0,10.0,63,0.00,,SCT035,0.00,86.00,VWS V14.00,2013-02-05 19:08:00,
2013-02-05 14:13:00,75.6,62.1,29.97,SSE,159,7.0,7.0,63,0.00,,SCT035,0.00,105.00,VWS V14.00,2013-02-05 19:13:00,
2013-02-05 14:18:00,76.0,62.5,29.97,South,171,3.0,4.0,63,0.00,,SCT035,0.00,83.00,VWS V14.00,2013-02-05 19:18:00,
2013-02-05 14:23:00,76.0,63.0,29.97,SSE,161,2.0,6.0,64,0.00,,SCT035,0.00,109.00,VWS V14.00,2013-02-05 19:23:00,
2013-02-05 14:28:00,76.0,63.0,29.97,South,173,5.0,10.0,64,0.00,,SCT035,0.00,151.00,VWS V14.00,2013-02-05 19:28:00,
2013-02-05 14:33:00,75.7,62.7,29.97,SSE,167,11.0,11.0,64,0.00,,SCT035,0.00,76.00,VWS V14.00,2013-02-05 19:33:00,
2013-02-05 14:38:00,75.2,62.6,29.97,SSE,162,6.0,12.0,65,0.00,,SCT035,0.00,56.00,VWS V14.00,2013-02-05 19:38:00,
2013-02-05 14:43:00,74.7,62.2,29.97,SSE,156,11.0,11.0,65,0.00,,SCT035,0.00,83.00,VWS V14.00,2013-02-05 19:43:00,
2013-02-05 14:48:00,74.6,62.5,29.97,SSE,159,3.0,10.0,66,0.00,,SCT035,0.00,142.00,VWS V14.00,2013-02-05 19:48:00,
2013-02-05 14:54:00,75.4,63.3,29.97,SSW,195,4.0,6.0,66,0.00,,SCT035,0.00,141.00,VWS V14.00,2013-02-05 19:54:00,
2013-02-05 14:59:00,76.2,63.1,29.97,South,175,0.0,7.0,64,0.00,,SCT035,0.00,135.00,VWS V14.00,2013-02-05 19:59:00,
2013-02-05 15:04:00,76.7,62.7,29.97,SSW,198,6.0,11.0,62,0.00,,SCT035,0.00,132.00,VWS V14.00,2013-02-05 20:04:00,
2013-02-05 15:09:00,76.6,62.6,29.97,SSW,200,4.0,6.0,62,0.00,,SCT035,0.00,118.00,VWS V14.00,2013-02-05 20:09:00,
2013-02-05 15:14:00,76.5,62.5,29.96,South,173,6.0,11.0,62,0.00,,SCT035,0.00,120.00,VWS V14.00,2013-02-05 20:14:00,
2013-02-05 15:19:00,76.7,62.7,29.96,South,169,3.0,9.0,62,0.00,,SCT035,0.00,102.00,VWS V14.00,2013-02-05 20:19:00,
2013-02-05 15:24:00,76.4,62.4,29.96,SSW,196,3.0,10.0,62,0.00,,SCT035,0.00,109.00,VWS V14.00,2013-02-05 20:24:00,
2013-02-05 15:29:00,76.1,62.6,29.96,SSE,163,4.0,10.0,63,0.00,,SCT035,0.00,111.00,VWS V14.00,2013-02-05 20:29:00,
2013-02-05 15:34:00,76.1,62.6,29.96,South,184,6.0,11.0,63,0.00,,SCT035,0.00,105.00,VWS V14.00,2013-02-05 20:34:00,
2013-02-05 15:39:00,76.1,62.6,29.96,South,176,9.0,9.0,63,0.00,,SCT035,0.00,100.00,VWS V14.00,2013-02-05 20:39:00,
2013-02-05 15:44:00,76.2,63.1,29.96,SSW,199,5.0,11.0,64,0.00,,SCT035,0.00,93.00,VWS V14.00,2013-02-05 20:44:00,
2013-02-05 15:49:00,76.3,62.8,29.95,South,184,11.0,13.0,63,0.00,,SCT035,0.00,90.00,VWS V14.00,2013-02-05 20:49:00,
2013-02-05 15:54:00,76.0,63.0,29.96,SSE,167,4.0,9.0,64,0.00,,SCT035,0.00,86.00,VWS V14.00,2013-02-05 20:54:00,
2013-02-05 15:59:00,75.9,62.9,29.96,South,169,4.0,8.0,64,0.00,,SCT035,0.00,84.00,VWS V14.00,2013-02-05 20:59:00,
2013-02-05 16:04:00,75.6,62.6,29.96,South,181,4.0,11.0,64,0.00,,SCT035,0.00,83.00,VWS V14.00,2013-02-05 21:04:00,
2013-02-05 16:09:00,75.6,63.0,29.96,South,178,8.0,10.0,65,0.00,,SCT035,0.00,70.00,VWS V14.00,2013-02-05 21:09:00,
2013-02-05 16:14:00,75.5,62.9,29.96,South,190,0.0,7.0,65,0.00,,SCT035,0.00,76.00,VWS V14.00,2013-02-05 21:14:00,
2013-02-05 16:19:00,75.6,63.0,29.96,SSW,194,0.0,9.0,65,0.00,,SCT035,0.00,58.00,VWS V14.00,2013-02-05 21:19:00,
2013-02-05 16:24:00,75.5,63.4,29.96,SSW,198,8.0,9.0,66,0.00,,SCT035,0.00,72.00,VWS V14.00,2013-02-05 21:24:00,
2013-02-05 16:29:00,75.3,63.2,29.96,SSW,195,6.0,7.0,66,0.00,,SCT035,0.00,30.00,VWS V14.00,2013-02-05 21:29:00,
2013-02-05 16:34:00,75.0,63.3,29.96,South,180,2.0,3.0,67,0.00,,SCT035,0.00,33.00,VWS V14.00,2013-02-05 21:34:00,
2013-02-05 16:39:00,75.0,63.7,29.96,South,178,4.0,5.0,68,0.00,,SCT035,0.00,35.00,VWS V14.00,2013-02-05 21:39:00,
2013-02-05 16:44:00,74.8,63.5,29.95,SSE,148,5.0,11.0,68,0.00,,SCT035,0.00,28.00,VWS V14.00,2013-02-05 21:44:00,
2013-02-05 16:49:00,74.5,63.7,29.96,South,176,4.0,7.0,69,0.00,,SCT035,0.00,23.00,VWS V14.00,2013-02-05 21:49:00,
2013-02-05 16:54:00,74.2,63.8,29.96,South,183,4.0,6.0,70,0.00,,SCT035,0.00,32.00,VWS V14.00,2013-02-05 21:54:00,
2013-02-05 16:59:00,74.2,63.8,29.96,South,189,1.0,6.0,70,0.00,,SCT035,0.00,25.00,VWS V14.00,2013-02-05 21:59:00,
2013-02-05 17:04:00,74.1,64.1,29.96,South,171,7.0,8.0,71,0.00,,SCT035,0.00,46.00,VWS V14.00,2013-02-05 22:04:00,
2013-02-05 17:09:00,74.0,64.0,29.96,SSE,161,0.0,9.0,71,0.00,,SCT035,0.00,26.00,VWS V14.00,2013-02-05 22:09:00,
2013-02-05 17:14:00,73.9,63.9,29.96,South,169,0.0,3.0,71,0.00,,SCT035,0.00,42.00,VWS V14.00,2013-02-05 22:14:00,
2013-02-05 17:19:00,73.9,63.9,29.96,South,169,5.0,9.0,71,0.00,,SCT035,0.00,40.00,VWS V14.00,2013-02-05 22:19:00,
2013-02-05 17:24:00,73.8,63.8,29.96,South,182,6.0,10.0,71,0.00,,SCT035,0.00,39.00,VWS V14.00,2013-02-05 22:24:00,
2013-02-05 17:29:00,73.8,63.8,29.96,South,188,2.0,5.0,71,0.00,,SCT035,0.00,32.00,VWS V14.00,2013-02-05 22:29:00,
2013-02-05 17:34:00,73.7,63.7,29.96,South,188,0.0,6.0,71,0.00,,SCT035,0.00,26.00,VWS V14.00,2013-02-05 22:34:00,
2013-02-05 17:39:00,73.6,63.6,29.95,SSW,193,1.0,7.0,71,0.00,,SCT035,0.00,12.00,VWS V14.00,2013-02-05 22:39:00,
2013-02-05 17:44:00,73.5,63.9,29.95,South,187,2.0,4.0,72,0.00,,SCT035,0.00,14.00,VWS V14.00,2013-02-05 22:44:00,
2013-02-05 17:49:00,73.4,63.8,29.96,South,184,2.0,5.0,72,0.00,,SCT035,0.00,7.00,VWS V14.00,2013-02-05 22:49:00,
2013-02-05 17:54:00,73.0,62.7,29.96,South,189,0.0,7.0,70,0.00,,SCT035,0.00,5.00,VWS V14.00,2013-02-05 22:54:00,
2013-02-05 17:59:00,72.9,62.5,29.96,South,188,0.0,1.0,70,0.00,,SCT035,0.00,0.00,VWS V14.00,2013-02-05 22:59:00,
2013-02-05 18:04:00,72.8,62.5,29.95,South,187,0.0,5.0,70,0.00,,SCT035,0.00,0.00,VWS V14.00,2013-02-05 23:04:00,
2013-02-05 18:10:00,72.7,62.4,29.96,South,187,0.0,2.0,70,0.00,,SCT035,0.00,0.00,VWS V14.00,2013-02-05 23:10:00,
2013-02-05 18:15:00,72.5,62.2,29.95,South,187,0.0,4.0,70,0.00,,SCT035,0.00,0.00,VWS V14.00,2013-02-05 23:15:00,
2013-02-05 18:20:00,72.4,62.5,29.95,South,186,1.0,2.0,71,0.00,,SCT035,0.00,0.00,VWS V14.00,2013-02-05 23:20:00,
2013-02-05 18:25:00,72.3,62.4,29.96,South,186,0.0,0.0,71,0.00,,SCT035,0.00,0.00,VWS V14.00,2013-02-05 23:25:00,
2013-02-05 18:30:00,72.2,62.3,29.95,South,184,1.0,5.0,71,0.00,,SCT035,0.00,0.00,VWS V14.00,2013-02-05 23:30:00,
2013-02-05 18:35:00,72.0,62.5,29.96,South,184,0.0,0.0,72,0.00,,CLR,0.00,0.00,VWS V14.00,2013-02-05 23:35:00,
2013-02-05 18:40:00,71.8,62.3,29.96,South,184,0.0,0.0,72,0.00,,CLR,0.00,0.00,VWS V14.00,2013-02-05 23:40:00,
2013-02-05 18:45:00,71.6,62.5,29.96,South,184,1.0,1.0,73,0.00,,CLR,0.00,0.00,VWS V14.00,2013-02-05 23:45:00,
2013-02-05 18:50:00,71.5,62.8,29.97,South,184,0.0,3.0,74,0.00,,CLR,0.00,0.00,VWS V14.00,2013-02-05 23:50:00,
2013-02-05 18:55:00,71.3,62.6,29.96,South,184,0.0,1.0,74,0.00,,CLR,0.00,0.00,VWS V14.00,2013-02-05 23:55:00,
2013-02-05 19:00:00,71.2,62.5,29.97,South,184,2.0,3.0,74,0.00,,CLR,0.00,0.00,VWS V14.00,2013-02-06 00:00:00,
2013-02-05 19:05:00,71.1,62.8,29.97,South,184,1.0,1.0,75,0.00,,CLR,0.00,0.00,VWS V14.00,2013-02-06 00:05:00,
2013-02-05 19:10:00,71.1,62.8,29.97,South,184,0.0,0.0,75,0.00,,CLR,0.00,0.00,VWS V14.00,2013-02-06 00:10:00,
2013-02-05 19:15:00,71.0,62.7,29.97,South,184,0.0,0.0,75,0.00,,CLR,0.00,0.00,VWS V14.00,2013-02-06 00:15:00,
2013-02-05 19:20:00,71.0,62.7,29.97,South,184,0.0,1.0,75,0.00,,CLR,0.00,0.00,VWS V14.00,2013-02-06 00:20:00,
2013-02-05 19:25:00,70.9,62.6,29.97,South,184,0.0,1.0,75,0.00,,CLR,0.00,0.00,VWS V14.00,2013-02-06 00:25:00,
2013-02-05 19:30:00,70.8,62.9,29.97,South,184,0.0,1.0,76,0.00,,CLR,0.00,0.00,VWS V14.00,2013-02-06 00:30:00,
2013-02-05 19:35:00,70.7,62.8,29.97,South,184,0.0,0.0,76,0.00,,CLR,0.00,0.00,VWS V14.00,2013-02-06 00:35:00,
2013-02-05 19:40:00,70.6,62.7,29.98,South,183,1.0,3.0,76,0.00,,CLR,0.00,0.00,VWS V14.00,2013-02-06 00:40:00,
2013-02-05 19:45:00,70.6,62.7,29.98,South,184,0.0,0.0,76,0.00,,CLR,0.00,0.00,VWS V14.00,2013-02-06 00:45:00,
2013-02-05 19:50:00,70.4,62.5,29.98,South,184,2.0,2.0,76,0.00,,CLR,0.00,0.00,VWS V14.00,2013-02-06 00:50:00,
2013-02-05 19:55:00,70.3,62.8,29.98,South,184,0.0,0.0,77,0.00,,CLR,0.00,0.00,VWS V14.00,2013-02-06 00:55:00,
2013-02-05 20:00:00,70.2,62.7,29.98,South,184,0.0,1.0,77,0.00,,CLR,0.00,0.00,VWS V14.00,2013-02-06 01:00:00,
2013-02-05 20:05:00,70.1,62.6,29.98,South,184,0.0,0.0,77,0.00,,CLR,0.00,0.00,VWS V14.00,2013-02-06 01:05:00,
2013-02-05 20:10:00,69.9,62.4,29.98,South,184,0.0,0.0,77,0.00,,CLR,0.00,0.00,VWS V14.00,2013-02-06 01:10:00,
2013-02-05 20:15:00,69.8,62.6,29.98,South,184,0.0,0.0,78,0.00,,CLR,0.00,0.00,VWS V14.00,2013-02-06 01:15:00,
2013-02-05 20:20:00,69.7,62.5,29.98,South,184,0.0,0.0,78,0.00,,CLR,0.00,0.00,VWS V14.00,2013-02-06 01:20:00,
2013-02-05 20:25:00,69.5,62.3,29.98,South,184,0.0,0.0,78,0.00,,CLR,0.00,0.00,VWS V14.00,2013-02-06 01:25:00,
2013-02-05 20:30:00,69.4,62.6,29.98,South,184,0.0,0.0,79,0.00,,CLR,0.00,0.00,VWS V14.00,2013-02-06 01:30:00,
2013-02-05 20:35:00,69.3,62.5,29.98,South,184,0.0,0.0,79,0.00,,CLR,0.00,0.00,VWS V14.00,2013-02-06 01:35:00,
2013-02-05 20:40:00,69.1,62.3,29.99,South,184,0.0,0.0,79,0.00,,CLR,0.00,0.00,VWS V14.00,2013-02-06 01:40:00,
2013-02-05 20:45:00,69.0,62.6,29.99,South,184,0.0,0.0,80,0.00,,CLR,0.00,0.00,VWS V14.00,2013-02-06 01:45:00,
2013-02-05 20:50:00,68.9,62.8,29.99,South,184,0.0,0.0,81,0.00,,CLR,0.00,0.00,VWS V14.00,2013-02-06 01:50:00,
2013-02-05 20:55:00,68.7,62.6,29.99,South,184,0.0,0.0,81,0.00,,CLR,0.00,0.00,VWS V14.00,2013-02-06 01:55:00,
2013-02-05 21:00:00,68.4,62.3,29.99,South,184,0.0,0.0,81,0.00,,CLR,0.00,0.00,VWS V14.00,2013-02-06 02:00:00,
2013-02-05 21:05:00,68.3,62.9,29.99,South,184,0.0,0.0,83,0.00,,CLR,0.00,0.00,VWS V14.00,2013-02-06 02:05:00,
2013-02-05 21:10:00,68.1,62.4,29.99,South,184,0.0,0.0,82,0.00,,CLR,0.00,0.00,VWS V14.00,2013-02-06 02:10:00,
2013-02-05 21:15:00,67.9,62.5,29.99,South,184,0.0,0.0,83,0.00,,CLR,0.00,0.00,VWS V14.00,2013-02-06 02:15:00,
2013-02-05 21:20:00,67.7,62.4,29.99,South,184,0.0,0.0,83,0.00,,CLR,0.00,0.00,VWS V14.00,2013-02-06 02:20:00,
2013-02-05 21:25:00,67.5,62.2,29.99,South,184,0.0,0.0,83,0.00,,CLR,0.00,0.00,VWS V14.00,2013-02-06 02:25:00,
2013-02-05 21:30:00,67.3,62.0,29.99,South,184,0.0,0.0,83,0.00,,CLR,0.00,0.00,VWS V14.00,2013-02-06 02:30:00,
2013-02-05 21:35:00,67.1,62.1,29.99,South,184,0.0,0.0,84,0.00,,CLR,0.00,0.00,VWS V14.00,2013-02-06 02:35:00,
2013-02-05 21:40:00,67.0,62.3,29.99,South,184,0.0,0.0,85,0.00,,CLR,0.00,0.00,VWS V14.00,2013-02-06 02:40:00,
2013-02-05 21:45:00,66.9,62.6,30.00,South,184,0.0,0.0,86,0.00,,CLR,0.00,0.00,VWS V14.00,2013-02-06 02:45:00,
2013-02-05 21:50:00,66.9,62.6,30.00,South,184,0.0,0.0,86,0.00,,CLR,0.00,0.00,VWS V14.00,2013-02-06 02:50:00,
2013-02-05 21:55:00,66.8,62.5,30.00,South,184,0.0,0.0,86,0.00,,CLR,0.00,0.00,VWS V14.00,2013-02-06 02:55:00,
2013-02-05 22:01:00,66.6,62.6,30.00,South,184,0.0,0.0,87,0.00,,CLR,0.00,0.00,VWS V14.00,2013-02-06 03:01:00,
2013-02-05 22:06:00,66.4,62.4,30.00,South,184,0.0,0.0,87,0.00,,CLR,0.00,0.00,VWS V14.00,2013-02-06 03:06:00,
2013-02-05 22:11:00,66.0,61.7,30.00,South,184,0.0,0.0,86,0.00,,CLR,0.00,0.00,VWS V14.00,2013-02-06 03:11:00,
2013-02-05 22:16:00,65.7,61.7,30.00,South,184,0.0,0.0,87,0.00,,CLR,0.00,0.00,VWS V14.00,2013-02-06 03:16:00,
2013-02-05 22:21:00,65.4,61.1,30.00,South,184,0.0,0.0,86,0.00,,CLR,0.00,0.00,VWS V14.00,2013-02-06 03:21:00,
2013-02-05 22:26:00,65.2,61.2,30.00,South,184,0.0,0.0,87,0.00,,CLR,0.00,0.00,VWS V14.00,2013-02-06 03:26:00,
2013-02-05 22:31:00,65.1,61.1,30.00,South,184,0.0,0.0,87,0.00,,CLR,0.00,0.00,VWS V14.00,2013-02-06 03:31:00,
2013-02-05 22:36:00,65.0,61.0,30.00,South,184,0.0,0.0,87,0.00,,CLR,0.00,0.00,VWS V14.00,2013-02-06 03:36:00,
2013-02-05 22:41:00,65.0,61.4,30.01,South,184,0.0,0.0,88,0.00,,CLR,0.00,0.00,VWS V14.00,2013-02-06 03:41:00,
2013-02-05 22:46:00,65.1,61.5,30.01,South,184,0.0,0.0,88,0.00,,CLR,0.00,0.00,VWS V14.00,2013-02-06 03:46:00,
2013-02-05 22:51:00,65.2,61.9,30.00,South,184,0.0,0.0,89,0.00,,CLR,0.00,0.00,VWS V14.00,2013-02-06 03:51:00,
2013-02-05 22:56:00,65.2,61.9,30.01,South,184,0.0,0.0,89,0.00,,CLR,0.00,0.00,VWS V14.00,2013-02-06 03:56:00,
2013-02-05 23:01:00,65.0,61.4,30.01,South,184,0.0,0.0,88,0.00,,CLR,0.00,0.00,VWS V14.00,2013-02-06 04:01:00,
2013-02-05 23:06:00,64.9,61.3,30.01,South,184,0.0,0.0,88,0.00,,CLR,0.00,0.00,VWS V14.00,2013-02-06 04:06:00,
2013-02-05 23:11:00,64.6,61.3,30.01,South,184,0.0,0.0,89,0.00,,CLR,0.00,0.00,VWS V14.00,2013-02-06 04:11:00,
2013-02-05 23:16:00,64.4,61.1,30.01,South,184,0.0,0.0,89,0.00,,CLR,0.00,0.00,VWS V14.00,2013-02-06 04:16:00,
2013-02-05 23:21:00,64.2,60.9,30.01,South,184,0.0,0.0,89,0.00,,CLR,0.00,0.00,VWS V14.00,2013-02-06 04:21:00,
2013-02-05 23:26:00,64.2,60.9,30.00,South,184,0.0,0.0,89,0.00,,CLR,0.00,0.00,VWS V14.00,2013-02-06 04:26:00,
2013-02-05 23:31:00,64.2,60.9,30.00,South,184,0.0,0.0,89,0.00,,CLR,0.00,0.00,VWS V14.00,2013-02-06 04:31:00,
2013-02-05 23:36:00,64.1,60.8,30.00,South,184,0.0,0.0,89,0.00,,CLR,0.00,0.00,VWS V14.00,2013-02-06 04:36:00,
2013-02-05 23:41:00,64.0,60.7,30.00,South,184,0.0,0.0,89,0.00,,CLR,0.00,0.00,VWS V14.00,2013-02-06 04:41:00,
2013-02-05 23:46:00,64.0,61.0,30.00,South,184,0.0,0.0,90,0.00,,CLR,0.00,0.00,VWS V14.00,2013-02-06 04:46:00,
2013-02-05 23:51:00,64.0,61.0,30.00,South,184,0.0,0.0,90,0.00,,CLR,0.00,0.00,VWS V14.00,2013-02-06 04:51:00,
2013-02-05 23:56:00,63.9,60.9,30.00,South,184,0.0,0.0,90,0.00,,CLR,0.00,0.00,VWS V14.00,2013-02-06 04:56:00,